Year,Month,Day,Hour,Minute,Value (Times are PST for windspeed in km/hr)
2010,04,01,00,00,0.00
2010,04,01,00,01,0.00
2010,04,01,00,02,0.00
2010,04,01,00,03,0.00
2010,04,01,00,04,0.00
2010,04,01,00,05,0.00
2010,04,01,00,06,0.00
2010,04,01,00,07,0.00
2010,04,01,00,08,0.00
2010,04,01,00,09,0.00
2010,04,01,00,10,0.00
2010,04,01,00,11,0.00
2010,04,01,00,12,0.00
2010,04,01,00,13,0.00
2010,04,01,00,14,0.00
2010,04,01,00,15,0.00
2010,04,01,00,16,0.00
2010,04,01,00,17,0.00
2010,04,01,00,18,0.00
2010,04,01,00,19,0.10
2010,04,01,00,20,0.70
2010,04,01,00,21,1.40
2010,04,01,00,22,0.30
2010,04,01,00,23,0.10
2010,04,01,00,24,0.60
2010,04,01,00,25,0.20
2010,04,01,00,26,0.20
2010,04,01,00,27,0.10
2010,04,01,00,28,0.10
2010,04,01,00,29,0.00
2010,04,01,00,30,0.00
2010,04,01,00,31,0.00
2010,04,01,00,32,0.00
2010,04,01,00,33,0.00
2010,04,01,00,34,0.00
2010,04,01,00,35,0.00
2010,04,01,00,36,0.00
2010,04,01,00,37,0.00
2010,04,01,00,38,0.00
2010,04,01,00,39,0.00
2010,04,01,00,40,0.00
2010,04,01,00,41,0.00
2010,04,01,00,42,0.00
2010,04,01,00,43,0.00
2010,04,01,00,44,0.00
2010,04,01,00,45,0.00
2010,04,01,00,46,0.00
2010,04,01,00,47,0.00
2010,04,01,00,48,0.00
2010,04,01,00,49,0.00
2010,04,01,00,50,0.00
2010,04,01,00,51,0.00
2010,04,01,00,52,0.50
2010,04,01,00,53,1.50
2010,04,01,00,54,2.10
2010,04,01,00,55,2.10
2010,04,01,00,56,2.80
2010,04,01,00,57,2.30
2010,04,01,00,58,2.40
2010,04,01,00,59,2.10
2010,04,01,01,00,1.60
2010,04,01,01,01,1.60
2010,04,01,01,02,0.10
2010,04,01,01,03,0.80
2010,04,01,01,04,1.40
2010,04,01,01,05,1.60
2010,04,01,01,06,1.90
2010,04,01,01,07,1.80
2010,04,01,01,08,2.60
2010,04,01,01,09,2.00
2010,04,01,01,10,3.10
2010,04,01,01,11,3.10
2010,04,01,01,12,2.30
2010,04,01,01,13,3.00
2010,04,01,01,14,3.00
2010,04,01,01,15,2.00
2010,04,01,01,16,1.90
2010,04,01,01,17,1.80
2010,04,01,01,18,1.60
2010,04,01,01,19,2.50
2010,04,01,01,20,2.50
2010,04,01,01,21,2.20
2010,04,01,01,22,3.20
2010,04,01,01,23,2.60
2010,04,01,01,24,3.70
2010,04,01,01,25,3.40
2010,04,01,01,26,3.00
2010,04,01,01,27,2.80
2010,04,01,01,28,4.80
2010,04,01,01,29,4.60
2010,04,01,01,30,3.70
2010,04,01,01,31,4.90
2010,04,01,01,32,4.70
2010,04,01,01,33,4.40
2010,04,01,01,34,4.60
2010,04,01,01,35,4.00
2010,04,01,01,36,3.60
2010,04,01,01,37,3.70
2010,04,01,01,38,3.50
2010,04,01,01,39,3.40
2010,04,01,01,40,3.20
2010,04,01,01,41,3.60
2010,04,01,01,42,4.40
2010,04,01,01,43,4.50
2010,04,01,01,44,4.20
2010,04,01,01,45,3.50
2010,04,01,01,46,3.30
2010,04,01,01,47,4.00
2010,04,01,01,48,3.00
2010,04,01,01,49,2.90
2010,04,01,01,50,2.90
2010,04,01,01,51,3.70
2010,04,01,01,52,4.50
2010,04,01,01,53,2.40
2010,04,01,01,54,3.20
2010,04,01,01,55,3.10
2010,04,01,01,56,3.60
2010,04,01,01,57,3.30
2010,04,01,01,58,3.70
2010,04,01,01,59,3.50
2010,04,01,02,00,3.80
2010,04,01,02,01,4.90
2010,04,01,02,02,3.90
2010,04,01,02,03,4.10
2010,04,01,02,04,4.80
2010,04,01,02,05,3.20
2010,04,01,02,06,3.80
2010,04,01,02,07,4.00
2010,04,01,02,08,3.60
2010,04,01,02,09,2.80
2010,04,01,02,10,3.10
2010,04,01,02,11,3.40
2010,04,01,02,12,3.80
2010,04,01,02,13,3.80
2010,04,01,02,14,3.40
2010,04,01,02,15,4.20
2010,04,01,02,16,3.70
2010,04,01,02,17,3.70
2010,04,01,02,18,2.70
2010,04,01,02,19,2.60
2010,04,01,02,20,2.70
2010,04,01,02,21,2.80
2010,04,01,02,22,3.10
2010,04,01,02,23,2.50
2010,04,01,02,24,2.60
2010,04,01,02,25,3.30
2010,04,01,02,26,3.10
2010,04,01,02,27,3.20
2010,04,01,02,28,3.20
2010,04,01,02,29,4.00
2010,04,01,02,30,3.70
2010,04,01,02,31,3.20
2010,04,01,02,32,3.10
2010,04,01,02,33,3.40
2010,04,01,02,34,3.00
2010,04,01,02,35,2.70
2010,04,01,02,36,3.00
2010,04,01,02,37,3.20
2010,04,01,02,38,3.50
2010,04,01,02,39,3.40
2010,04,01,02,40,3.50
2010,04,01,02,41,3.50
2010,04,01,02,42,3.40
2010,04,01,02,43,3.90
2010,04,01,02,44,3.50
2010,04,01,02,45,3.70
2010,04,01,02,46,4.00
2010,04,01,02,47,2.60
2010,04,01,02,48,3.50
2010,04,01,02,49,2.90
2010,04,01,02,50,2.60
2010,04,01,02,51,1.50
2010,04,01,02,52,2.30
2010,04,01,02,53,2.10
2010,04,01,02,54,2.90
2010,04,01,02,55,2.20
2010,04,01,02,56,2.60
2010,04,01,02,57,2.70
2010,04,01,02,58,1.90
2010,04,01,02,59,2.40
2010,04,01,03,00,2.10
2010,04,01,03,01,2.10
2010,04,01,03,02,0.10
2010,04,01,03,03,1.00
2010,04,01,03,04,2.40
2010,04,01,03,05,2.60
2010,04,01,03,06,2.80
2010,04,01,03,07,2.20
2010,04,01,03,08,0.40
2010,04,01,03,09,2.10
2010,04,01,03,10,0.10
2010,04,01,03,11,0.70
2010,04,01,03,12,2.80
2010,04,01,03,13,2.30
2010,04,01,03,14,2.60
2010,04,01,03,15,2.80
2010,04,01,03,16,2.90
2010,04,01,03,17,2.10
2010,04,01,03,18,3.10
2010,04,01,03,19,3.70
2010,04,01,03,20,3.50
2010,04,01,03,21,3.00
2010,04,01,03,22,3.90
2010,04,01,03,23,2.70
2010,04,01,03,24,3.20
2010,04,01,03,25,2.30
2010,04,01,03,26,3.40
2010,04,01,03,27,3.10
2010,04,01,03,28,3.10
2010,04,01,03,29,2.30
2010,04,01,03,30,2.70
2010,04,01,03,31,2.00
2010,04,01,03,32,2.10
2010,04,01,03,33,2.60
2010,04,01,03,34,3.20
2010,04,01,03,35,3.30
2010,04,01,03,36,3.40
2010,04,01,03,37,3.50
2010,04,01,03,38,2.70
2010,04,01,03,39,0.80
2010,04,01,03,40,2.70
2010,04,01,03,41,1.70
2010,04,01,03,42,0.90
2010,04,01,03,43,2.90
2010,04,01,03,44,1.80
2010,04,01,03,45,1.90
2010,04,01,03,46,2.90
2010,04,01,03,47,2.00
2010,04,01,03,48,1.60
2010,04,01,03,49,2.00
2010,04,01,03,50,2.10
2010,04,01,03,51,2.70
2010,04,01,03,52,2.30
2010,04,01,03,53,2.90
2010,04,01,03,54,3.70
2010,04,01,03,55,3.10
2010,04,01,03,56,3.40
2010,04,01,03,57,4.30
2010,04,01,03,58,4.10
2010,04,01,03,59,3.70
2010,04,01,04,00,4.10
2010,04,01,04,01,3.80
2010,04,01,04,02,3.40
2010,04,01,04,03,3.90
2010,04,01,04,04,3.90
2010,04,01,04,05,3.10
2010,04,01,04,06,1.80
2010,04,01,04,07,0.10
2010,04,01,04,08,0.10
2010,04,01,04,09,0.00
2010,04,01,04,10,0.10
2010,04,01,04,11,0.00
2010,04,01,04,12,0.10
2010,04,01,04,13,2.10
2010,04,01,04,14,2.50
2010,04,01,04,15,2.10
2010,04,01,04,16,2.70
2010,04,01,04,17,2.60
2010,04,01,04,18,2.00
2010,04,01,04,19,3.10
2010,04,01,04,20,3.10
2010,04,01,04,21,2.90
2010,04,01,04,22,2.30
2010,04,01,04,23,3.00
2010,04,01,04,24,2.70
2010,04,01,04,25,2.80
2010,04,01,04,26,2.10
2010,04,01,04,27,2.10
2010,04,01,04,28,2.40
2010,04,01,04,29,2.80
2010,04,01,04,30,0.60
2010,04,01,04,31,0.00
2010,04,01,04,32,0.00
2010,04,01,04,33,0.00
2010,04,01,04,34,1.50
2010,04,01,04,35,2.20
2010,04,01,04,36,0.40
2010,04,01,04,37,0.40
2010,04,01,04,38,0.50
2010,04,01,04,39,0.00
2010,04,01,04,40,1.20
2010,04,01,04,41,1.60
2010,04,01,04,42,0.70
2010,04,01,04,43,1.90
2010,04,01,04,44,2.00
2010,04,01,04,45,2.00
2010,04,01,04,46,1.60
2010,04,01,04,47,2.20
2010,04,01,04,48,0.40
2010,04,01,04,49,0.50
2010,04,01,04,50,1.40
2010,04,01,04,51,0.10
2010,04,01,04,52,0.00
2010,04,01,04,53,0.00
2010,04,01,04,54,0.10
2010,04,01,04,55,0.10
2010,04,01,04,56,1.30
2010,04,01,04,57,1.40
2010,04,01,04,58,1.10
2010,04,01,04,59,0.20
2010,04,01,05,00,1.10
2010,04,01,05,01,0.10
2010,04,01,05,02,0.20
2010,04,01,05,03,0.00
2010,04,01,05,04,0.10
2010,04,01,05,05,0.10
2010,04,01,05,06,1.50
2010,04,01,05,07,1.60
2010,04,01,05,08,1.90
2010,04,01,05,09,0.80
2010,04,01,05,10,0.90
2010,04,01,05,11,1.80
2010,04,01,05,12,3.90
2010,04,01,05,13,3.30
2010,04,01,05,14,3.10
2010,04,01,05,15,3.10
2010,04,01,05,16,3.10
2010,04,01,05,17,1.80
2010,04,01,05,18,0.50
2010,04,01,05,19,0.90
2010,04,01,05,20,1.90
2010,04,01,05,21,2.40
2010,04,01,05,22,2.20
2010,04,01,05,23,2.40
2010,04,01,05,24,1.50
2010,04,01,05,25,0.70
2010,04,01,05,26,0.10
2010,04,01,05,27,0.00
2010,04,01,05,28,0.10
2010,04,01,05,29,0.50
2010,04,01,05,30,1.80
2010,04,01,05,31,1.80
2010,04,01,05,32,2.10
2010,04,01,05,33,2.30
2010,04,01,05,34,2.00
2010,04,01,05,35,2.30
2010,04,01,05,36,3.30
2010,04,01,05,37,2.70
2010,04,01,05,38,2.30
2010,04,01,05,39,2.80
2010,04,01,05,40,2.70
2010,04,01,05,41,2.40
2010,04,01,05,42,2.50
2010,04,01,05,43,2.40
2010,04,01,05,44,2.90
2010,04,01,05,45,2.80
2010,04,01,05,46,2.20
2010,04,01,05,47,1.60
2010,04,01,05,48,2.50
2010,04,01,05,49,1.90
2010,04,01,05,50,1.30
2010,04,01,05,51,0.10
2010,04,01,05,52,1.20
2010,04,01,05,53,0.70
2010,04,01,05,54,1.70
2010,04,01,05,55,2.20
2010,04,01,05,56,2.00
2010,04,01,05,57,2.00
2010,04,01,05,58,1.90
2010,04,01,05,59,1.80
2010,04,01,06,00,1.90
2010,04,01,06,01,2.00
2010,04,01,06,02,0.10
2010,04,01,06,03,0.40
2010,04,01,06,04,0.80
2010,04,01,06,05,3.20
2010,04,01,06,06,2.90
2010,04,01,06,07,2.30
2010,04,01,06,08,2.00
2010,04,01,06,09,0.70
2010,04,01,06,10,0.10
2010,04,01,06,11,0.00
2010,04,01,06,12,0.00
2010,04,01,06,13,0.00
2010,04,01,06,14,0.00
2010,04,01,06,15,0.00
2010,04,01,06,16,1.80
2010,04,01,06,17,1.20
2010,04,01,06,18,0.00
2010,04,01,06,19,0.00
2010,04,01,06,20,0.00
2010,04,01,06,21,0.00
2010,04,01,06,22,0.00
2010,04,01,06,23,0.00
2010,04,01,06,24,0.00
2010,04,01,06,25,0.00
2010,04,01,06,26,0.30
2010,04,01,06,27,0.10
2010,04,01,06,28,0.00
2010,04,01,06,29,0.60
2010,04,01,06,30,0.00
2010,04,01,06,31,0.00
2010,04,01,06,32,0.00
2010,04,01,06,33,0.00
2010,04,01,06,34,0.00
2010,04,01,06,35,0.00
2010,04,01,06,36,0.00
2010,04,01,06,37,0.00
2010,04,01,06,38,0.00
2010,04,01,06,39,0.00
2010,04,01,06,40,0.00
2010,04,01,06,41,0.00
2010,04,01,06,42,0.00
2010,04,01,06,43,0.00
2010,04,01,06,44,0.00
2010,04,01,06,45,0.30
2010,04,01,06,46,1.80
2010,04,01,06,47,0.70
2010,04,01,06,48,0.00
2010,04,01,06,49,0.00
2010,04,01,06,50,0.00
2010,04,01,06,51,1.40
2010,04,01,06,52,1.80
2010,04,01,06,53,2.30
2010,04,01,06,54,0.60
2010,04,01,06,55,0.00
2010,04,01,06,56,2.40
2010,04,01,06,57,3.40
2010,04,01,06,58,3.70
2010,04,01,06,59,3.90
2010,04,01,07,00,4.10
2010,04,01,07,01,2.50
2010,04,01,07,02,1.70
2010,04,01,07,03,1.30
2010,04,01,07,04,2.60
2010,04,01,07,05,2.10
2010,04,01,07,06,1.00
2010,04,01,07,07,0.00
2010,04,01,07,08,0.00
2010,04,01,07,09,0.00
2010,04,01,07,10,0.00
2010,04,01,07,11,0.00
2010,04,01,07,12,0.00
2010,04,01,07,13,0.00
2010,04,01,07,14,0.00
2010,04,01,07,15,0.10
2010,04,01,07,16,0.80
2010,04,01,07,17,0.00
2010,04,01,07,18,0.00
2010,04,01,07,19,0.00
2010,04,01,07,20,0.00
2010,04,01,07,21,0.00
2010,04,01,07,22,0.00
2010,04,01,07,23,0.00
2010,04,01,07,24,0.00
2010,04,01,07,25,0.00
2010,04,01,07,26,0.00
2010,04,01,07,27,0.00
2010,04,01,07,28,0.00
2010,04,01,07,29,0.60
2010,04,01,07,30,0.70
2010,04,01,07,31,1.60
2010,04,01,07,32,1.80
2010,04,01,07,33,2.00
2010,04,01,07,34,1.70
2010,04,01,07,35,2.20
2010,04,01,07,36,2.40
2010,04,01,07,37,2.00
2010,04,01,07,38,2.50
2010,04,01,07,39,2.00
2010,04,01,07,40,2.70
2010,04,01,07,41,2.20
2010,04,01,07,42,1.60
2010,04,01,07,43,1.00
2010,04,01,07,44,1.80
2010,04,01,07,45,1.50
2010,04,01,07,46,1.00
2010,04,01,07,47,1.10
2010,04,01,07,48,2.10
2010,04,01,07,49,0.20
2010,04,01,07,50,0.00
2010,04,01,07,51,0.00
2010,04,01,07,52,0.00
2010,04,01,07,53,0.00
2010,04,01,07,54,0.00
2010,04,01,07,55,0.10
2010,04,01,07,56,0.00
2010,04,01,07,57,0.10
2010,04,01,07,58,0.00
2010,04,01,07,59,0.20
2010,04,01,08,00,0.00
2010,04,01,08,01,0.20
2010,04,01,08,02,2.00
2010,04,01,08,03,0.60
2010,04,01,08,04,0.50
2010,04,01,08,05,1.80
2010,04,01,08,06,1.50
2010,04,01,08,07,0.40
2010,04,01,08,08,0.00
2010,04,01,08,09,0.20
2010,04,01,08,10,0.00
2010,04,01,08,11,0.40
2010,04,01,08,12,0.90
2010,04,01,08,13,0.40
2010,04,01,08,14,0.00
2010,04,01,08,15,0.00
2010,04,01,08,16,0.00
2010,04,01,08,17,0.10
2010,04,01,08,18,0.50
2010,04,01,08,19,0.60
2010,04,01,08,20,1.00
2010,04,01,08,21,0.00
2010,04,01,08,22,0.80
2010,04,01,08,23,0.80
2010,04,01,08,24,0.90
2010,04,01,08,25,1.30
2010,04,01,08,26,0.00
2010,04,01,08,27,0.00
2010,04,01,08,28,0.00
2010,04,01,08,29,0.00
2010,04,01,08,30,0.10
2010,04,01,08,31,0.40
2010,04,01,08,32,0.10
2010,04,01,08,33,0.40
2010,04,01,08,34,1.20
2010,04,01,08,35,1.60
2010,04,01,08,36,3.30
2010,04,01,08,37,1.70
2010,04,01,08,38,0.50
2010,04,01,08,39,3.40
2010,04,01,08,40,2.70
2010,04,01,08,41,0.10
2010,04,01,08,42,0.20
2010,04,01,08,43,3.50
2010,04,01,08,44,0.50
2010,04,01,08,45,0.00
2010,04,01,08,46,0.00
2010,04,01,08,47,0.70
2010,04,01,08,48,2.00
2010,04,01,08,49,0.10
2010,04,01,08,50,0.00
2010,04,01,08,51,0.00
2010,04,01,08,52,0.30
2010,04,01,08,53,1.40
2010,04,01,08,54,0.00
2010,04,01,08,55,0.40
2010,04,01,08,56,4.00
2010,04,01,08,57,2.60
2010,04,01,08,58,2.90
2010,04,01,08,59,0.40
2010,04,01,09,00,1.60
2010,04,01,09,01,2.90
2010,04,01,09,02,3.70
2010,04,01,09,03,4.10
2010,04,01,09,04,2.90
2010,04,01,09,05,2.10
2010,04,01,09,06,4.70
2010,04,01,09,07,4.90
2010,04,01,09,08,4.00
2010,04,01,09,09,0.80
2010,04,01,09,10,1.40
2010,04,01,09,11,5.80
2010,04,01,09,12,5.50
2010,04,01,09,13,5.30
2010,04,01,09,14,1.00
2010,04,01,09,15,1.80
2010,04,01,09,16,1.80
2010,04,01,09,17,3.90
2010,04,01,09,18,2.70
2010,04,01,09,19,0.80
2010,04,01,09,20,4.90
2010,04,01,09,21,0.90
2010,04,01,09,22,0.10
2010,04,01,09,23,1.30
2010,04,01,09,24,3.80
2010,04,01,09,25,4.40
2010,04,01,09,26,5.50
2010,04,01,09,27,4.80
2010,04,01,09,28,0.50
2010,04,01,09,29,4.00
2010,04,01,09,30,2.30
2010,04,01,09,31,4.40
2010,04,01,09,32,12.60
2010,04,01,09,33,7.40
2010,04,01,09,34,6.50
2010,04,01,09,35,6.40
2010,04,01,09,36,0.70
2010,04,01,09,37,0.20
2010,04,01,09,38,4.00
2010,04,01,09,39,5.00
2010,04,01,09,40,5.60
2010,04,01,09,41,5.10
2010,04,01,09,42,3.80
2010,04,01,09,43,4.00
2010,04,01,09,44,12.30
2010,04,01,09,45,9.20
2010,04,01,09,46,4.30
2010,04,01,09,47,5.60
2010,04,01,09,48,7.20
2010,04,01,09,49,5.10
2010,04,01,09,50,9.00
2010,04,01,09,51,7.00
2010,04,01,09,52,2.60
2010,04,01,09,53,9.10
2010,04,01,09,54,8.40
2010,04,01,09,55,4.20
2010,04,01,09,56,7.50
2010,04,01,09,57,5.10
2010,04,01,09,58,8.90
2010,04,01,09,59,10.80
2010,04,01,10,00,7.00
2010,04,01,10,01,6.20
2010,04,01,10,02,6.00
2010,04,01,10,03,6.30
2010,04,01,10,04,4.40
2010,04,01,10,05,7.60
2010,04,01,10,06,3.10
2010,04,01,10,07,9.00
2010,04,01,10,08,6.20
2010,04,01,10,09,4.40
2010,04,01,10,10,2.70
2010,04,01,10,11,6.30
2010,04,01,10,12,3.90
2010,04,01,10,13,5.90
2010,04,01,10,14,4.50
2010,04,01,10,15,4.30
2010,04,01,10,16,8.30
2010,04,01,10,17,6.80
2010,04,01,10,18,7.40
2010,04,01,10,19,10.50
2010,04,01,10,20,6.80
2010,04,01,10,21,6.50
2010,04,01,10,22,10.20
2010,04,01,10,23,5.90
2010,04,01,10,24,4.30
2010,04,01,10,25,10.20
2010,04,01,10,26,8.90
2010,04,01,10,27,8.90
2010,04,01,10,28,12.60
2010,04,01,10,29,8.60
2010,04,01,10,30,8.50
2010,04,01,10,31,13.00
2010,04,01,10,32,13.50
2010,04,01,10,33,12.10
2010,04,01,10,34,6.80
2010,04,01,10,35,7.20
2010,04,01,10,36,4.30
2010,04,01,10,37,6.30
2010,04,01,10,38,9.60
2010,04,01,10,39,9.40
2010,04,01,10,40,6.00
2010,04,01,10,41,5.70
2010,04,01,10,42,3.00
2010,04,01,10,43,4.00
2010,04,01,10,44,5.70
2010,04,01,10,45,5.80
2010,04,01,10,46,5.50
2010,04,01,10,47,6.00
2010,04,01,10,48,4.10
2010,04,01,10,49,3.60
2010,04,01,10,50,6.10
2010,04,01,10,51,8.40
2010,04,01,10,52,4.00
2010,04,01,10,53,5.00
2010,04,01,10,54,5.90
2010,04,01,10,55,8.50
2010,04,01,10,56,10.60
2010,04,01,10,57,6.80
2010,04,01,10,58,5.70
2010,04,01,10,59,4.00
2010,04,01,11,00,2.60
2010,04,01,11,01,4.10
2010,04,01,11,02,1.90
2010,04,01,11,03,7.50
2010,04,01,11,04,0.90
2010,04,01,11,05,4.30
2010,04,01,11,06,3.80
2010,04,01,11,07,2.90
2010,04,01,11,08,2.80
2010,04,01,11,09,4.10
2010,04,01,11,10,4.80
2010,04,01,11,11,5.30
2010,04,01,11,12,4.60
2010,04,01,11,13,0.30
2010,04,01,11,14,5.70
2010,04,01,11,15,4.00
2010,04,01,11,16,1.40
2010,04,01,11,17,2.30
2010,04,01,11,18,2.60
2010,04,01,11,19,3.10
2010,04,01,11,20,5.00
2010,04,01,11,21,5.10
2010,04,01,11,22,5.20
2010,04,01,11,23,6.20
2010,04,01,11,24,4.60
2010,04,01,11,25,7.00
2010,04,01,11,26,7.60
2010,04,01,11,27,3.10
2010,04,01,11,28,4.80
2010,04,01,11,29,4.10
2010,04,01,11,30,8.10
2010,04,01,11,31,5.30
2010,04,01,11,32,2.50
2010,04,01,11,33,3.60
2010,04,01,11,34,6.70
2010,04,01,11,35,7.80
2010,04,01,11,36,2.90
2010,04,01,11,37,5.40
2010,04,01,11,38,6.90
2010,04,01,11,39,2.80
2010,04,01,11,40,5.30
2010,04,01,11,41,7.50
2010,04,01,11,42,10.60
2010,04,01,11,43,5.70
2010,04,01,11,44,3.30
2010,04,01,11,45,5.90
2010,04,01,11,46,7.40
2010,04,01,11,47,3.80
2010,04,01,11,48,2.30
2010,04,01,11,49,11.20
2010,04,01,11,50,8.00
2010,04,01,11,51,5.70
2010,04,01,11,52,10.00
2010,04,01,11,53,8.70
2010,04,01,11,54,12.00
2010,04,01,11,55,11.90
2010,04,01,11,56,11.60
2010,04,01,11,57,7.90
2010,04,01,11,58,5.40
2010,04,01,11,59,7.20
2010,04,01,12,00,5.30
2010,04,01,12,01,14.70
2010,04,01,12,02,17.10
2010,04,01,12,03,15.10
2010,04,01,12,04,8.80
2010,04,01,12,05,14.60
2010,04,01,12,06,15.30
2010,04,01,12,07,10.00
2010,04,01,12,08,11.90
2010,04,01,12,09,11.80
2010,04,01,12,10,12.10
2010,04,01,12,11,7.20
2010,04,01,12,12,13.90
2010,04,01,12,13,10.00
2010,04,01,12,14,12.80
2010,04,01,12,15,16.50
2010,04,01,12,16,11.10
2010,04,01,12,17,8.60
2010,04,01,12,18,9.30
2010,04,01,12,19,8.90
2010,04,01,12,20,12.30
2010,04,01,12,21,9.70
2010,04,01,12,22,12.90
2010,04,01,12,23,14.00
2010,04,01,12,24,13.00
2010,04,01,12,25,11.00
2010,04,01,12,26,14.20
2010,04,01,12,27,13.30
2010,04,01,12,28,15.00
2010,04,01,12,29,17.10
2010,04,01,12,30,11.20
2010,04,01,12,31,10.30
2010,04,01,12,32,15.10
2010,04,01,12,33,8.80
2010,04,01,12,34,9.80
2010,04,01,12,35,16.30
2010,04,01,12,36,10.90
2010,04,01,12,37,13.80
2010,04,01,12,38,8.90
2010,04,01,12,39,7.00
2010,04,01,12,40,6.00
2010,04,01,12,41,7.60
2010,04,01,12,42,6.30
2010,04,01,12,43,6.70
2010,04,01,12,44,6.30
2010,04,01,12,45,6.30
2010,04,01,12,46,8.50
2010,04,01,12,47,9.90
2010,04,01,12,48,11.00
2010,04,01,12,49,11.30
2010,04,01,12,50,8.60
2010,04,01,12,51,6.30
2010,04,01,12,52,5.80
2010,04,01,12,53,8.30
2010,04,01,12,54,11.10
2010,04,01,12,55,5.50
2010,04,01,12,56,10.00
2010,04,01,12,57,8.60
2010,04,01,12,58,10.20
2010,04,01,12,59,5.10
2010,04,01,13,00,3.60
2010,04,01,13,01,5.90
2010,04,01,13,02,8.70
2010,04,01,13,03,8.70
2010,04,01,13,04,4.00
2010,04,01,13,05,0.80
2010,04,01,13,06,2.10
2010,04,01,13,07,0.20
2010,04,01,13,08,9.00
2010,04,01,13,09,3.10
2010,04,01,13,10,3.20
2010,04,01,13,11,1.10
2010,04,01,13,12,5.90
2010,04,01,13,13,4.20
2010,04,01,13,14,3.10
2010,04,01,13,15,3.40
2010,04,01,13,16,1.90
2010,04,01,13,17,1.10
2010,04,01,13,18,0.50
2010,04,01,13,19,0.20
2010,04,01,13,20,1.30
2010,04,01,13,21,4.20
2010,04,01,13,22,0.10
2010,04,01,13,23,2.10
2010,04,01,13,24,12.50
2010,04,01,13,25,7.00
2010,04,01,13,26,1.30
2010,04,01,13,27,0.10
2010,04,01,13,28,3.10
2010,04,01,13,29,4.50
2010,04,01,13,30,3.80
2010,04,01,13,31,10.90
2010,04,01,13,32,6.50
2010,04,01,13,33,5.20
2010,04,01,13,34,4.40
2010,04,01,13,35,5.50
2010,04,01,13,36,7.80
2010,04,01,13,37,17.60
2010,04,01,13,38,12.00
2010,04,01,13,39,6.40
2010,04,01,13,40,8.30
2010,04,01,13,41,11.60
2010,04,01,13,42,16.70
2010,04,01,13,43,12.90
2010,04,01,13,44,10.50
2010,04,01,13,45,12.60
2010,04,01,13,46,13.90
2010,04,01,13,47,14.50
2010,04,01,13,48,9.00
2010,04,01,13,49,10.60
2010,04,01,13,50,6.90
2010,04,01,13,51,15.80
2010,04,01,13,52,16.50
2010,04,01,13,53,8.70
2010,04,01,13,54,11.80
2010,04,01,13,55,7.20
2010,04,01,13,56,9.80
2010,04,01,13,57,6.00
2010,04,01,13,58,9.60
2010,04,01,13,59,6.20
2010,04,01,14,00,5.50
2010,04,01,14,01,6.20
2010,04,01,14,02,10.90
2010,04,01,14,03,4.20
2010,04,01,14,04,8.40
2010,04,01,14,05,10.80
2010,04,01,14,06,12.10
2010,04,01,14,07,13.50
2010,04,01,14,08,10.50
2010,04,01,14,09,8.90
2010,04,01,14,10,11.60
2010,04,01,14,11,3.70
2010,04,01,14,12,3.10
2010,04,01,14,13,2.70
2010,04,01,14,14,16.70
2010,04,01,14,15,13.10
2010,04,01,14,16,9.80
2010,04,01,14,17,11.20
2010,04,01,14,18,8.70
2010,04,01,14,19,12.40
2010,04,01,14,20,9.60
2010,04,01,14,21,4.70
2010,04,01,14,22,9.60
2010,04,01,14,23,9.70
2010,04,01,14,24,11.30
2010,04,01,14,25,3.10
2010,04,01,14,26,5.40
2010,04,01,14,27,9.30
2010,04,01,14,28,10.50
2010,04,01,14,29,8.40
2010,04,01,14,30,4.40
2010,04,01,14,31,9.30
2010,04,01,14,32,8.40
2010,04,01,14,33,6.40
2010,04,01,14,34,7.70
2010,04,01,14,35,7.90
2010,04,01,14,36,8.50
2010,04,01,14,37,11.40
2010,04,01,14,38,4.30
2010,04,01,14,39,12.20
2010,04,01,14,40,13.90
2010,04,01,14,41,12.50
2010,04,01,14,42,9.40
2010,04,01,14,43,7.10
2010,04,01,14,44,6.40
2010,04,01,14,45,7.30
2010,04,01,14,46,10.00
2010,04,01,14,47,7.30
2010,04,01,14,48,11.80
2010,04,01,14,49,10.50
2010,04,01,14,50,10.30
2010,04,01,14,51,3.60
2010,04,01,14,52,8.90
2010,04,01,14,53,7.00
2010,04,01,14,54,7.50
2010,04,01,14,55,6.50
2010,04,01,14,56,6.70
2010,04,01,14,57,7.60
2010,04,01,14,58,4.70
2010,04,01,14,59,5.90
2010,04,01,15,00,12.80
2010,04,01,15,01,7.70
2010,04,01,15,02,1.70
2010,04,01,15,03,9.50
2010,04,01,15,04,9.70
2010,04,01,15,05,4.50
2010,04,01,15,06,5.40
2010,04,01,15,07,3.50
2010,04,01,15,08,6.70
2010,04,01,15,09,9.70
2010,04,01,15,10,4.10
2010,04,01,15,11,3.90
2010,04,01,15,12,4.80
2010,04,01,15,13,11.80
2010,04,01,15,14,12.60
2010,04,01,15,15,11.30
2010,04,01,15,16,4.90
2010,04,01,15,17,12.30
2010,04,01,15,18,10.80
2010,04,01,15,19,12.90
2010,04,01,15,20,13.80
2010,04,01,15,21,12.30
2010,04,01,15,22,9.40
2010,04,01,15,23,14.70
2010,04,01,15,24,6.10
2010,04,01,15,25,7.20
2010,04,01,15,26,5.30
2010,04,01,15,27,4.70
2010,04,01,15,28,9.10
2010,04,01,15,29,6.20
2010,04,01,15,30,3.80
2010,04,01,15,31,9.40
2010,04,01,15,32,11.50
2010,04,01,15,33,7.10
2010,04,01,15,34,5.40
2010,04,01,15,35,8.00
2010,04,01,15,36,14.70
2010,04,01,15,37,8.90
2010,04,01,15,38,9.60
2010,04,01,15,39,7.30
2010,04,01,15,40,9.30
2010,04,01,15,41,7.40
2010,04,01,15,42,13.90
2010,04,01,15,43,14.80
2010,04,01,15,44,9.70
2010,04,01,15,45,7.50
2010,04,01,15,46,8.00
2010,04,01,15,47,7.50
2010,04,01,15,48,15.00
2010,04,01,15,49,8.10
2010,04,01,15,50,9.00
2010,04,01,15,51,5.10
2010,04,01,15,52,6.60
2010,04,01,15,53,10.60
2010,04,01,15,54,9.50
2010,04,01,15,55,15.80
2010,04,01,15,56,8.20
2010,04,01,15,57,5.20
2010,04,01,15,58,7.70
2010,04,01,15,59,7.50
2010,04,01,16,00,9.50
2010,04,01,16,01,5.90
2010,04,01,16,02,9.30
2010,04,01,16,03,9.20
2010,04,01,16,04,6.30
2010,04,01,16,05,3.50
2010,04,01,16,06,8.30
2010,04,01,16,07,5.30
2010,04,01,16,08,6.40
2010,04,01,16,09,6.50
2010,04,01,16,10,4.10
2010,04,01,16,11,4.50
2010,04,01,16,12,4.40
2010,04,01,16,13,5.30
2010,04,01,16,14,4.80
2010,04,01,16,15,4.40
2010,04,01,16,16,4.50
2010,04,01,16,17,10.20
2010,04,01,16,18,10.00
2010,04,01,16,19,10.40
2010,04,01,16,20,13.70
2010,04,01,16,21,8.90
2010,04,01,16,22,8.00
2010,04,01,16,23,11.50
2010,04,01,16,24,8.90
2010,04,01,16,25,14.30
2010,04,01,16,26,6.30
2010,04,01,16,27,5.10
2010,04,01,16,28,6.00
2010,04,01,16,29,0.60
2010,04,01,16,30,0.00
2010,04,01,16,31,6.70
2010,04,01,16,32,8.80
2010,04,01,16,33,14.60
2010,04,01,16,34,5.10
2010,04,01,16,35,9.80
2010,04,01,16,36,8.30
2010,04,01,16,37,8.70
2010,04,01,16,38,8.60
2010,04,01,16,39,9.60
2010,04,01,16,40,8.70
2010,04,01,16,41,15.20
2010,04,01,16,42,5.00
2010,04,01,16,43,6.40
2010,04,01,16,44,8.00
2010,04,01,16,45,3.10
2010,04,01,16,46,3.40
2010,04,01,16,47,1.60
2010,04,01,16,48,0.30
2010,04,01,16,49,1.50
2010,04,01,16,50,2.30
2010,04,01,16,51,0.00
2010,04,01,16,52,0.00
2010,04,01,16,53,0.00
2010,04,01,16,54,0.80
2010,04,01,16,55,1.80
2010,04,01,16,56,1.60
2010,04,01,16,57,4.50
2010,04,01,16,58,2.50
2010,04,01,16,59,5.70
2010,04,01,17,00,4.80
2010,04,01,17,01,5.60
2010,04,01,17,02,4.00
2010,04,01,17,03,2.10
2010,04,01,17,04,1.50
2010,04,01,17,05,4.70
2010,04,01,17,06,4.20
2010,04,01,17,07,2.80
2010,04,01,17,08,0.20
2010,04,01,17,09,0.00
2010,04,01,17,10,0.00
2010,04,01,17,11,0.10
2010,04,01,17,12,1.60
2010,04,01,17,13,0.70
2010,04,01,17,14,0.50
2010,04,01,17,15,0.30
2010,04,01,17,16,0.20
2010,04,01,17,17,0.00
2010,04,01,17,18,0.00
2010,04,01,17,19,0.00
2010,04,01,17,20,0.00
2010,04,01,17,21,1.10
2010,04,01,17,22,0.60
2010,04,01,17,23,0.10
2010,04,01,17,24,0.00
2010,04,01,17,25,0.00
2010,04,01,17,26,0.00
2010,04,01,17,27,0.00
2010,04,01,17,28,0.00
2010,04,01,17,29,0.00
2010,04,01,17,30,0.00
2010,04,01,17,31,0.00
2010,04,01,17,32,0.10
2010,04,01,17,33,1.60
2010,04,01,17,34,0.30
2010,04,01,17,35,0.10
2010,04,01,17,36,1.60
2010,04,01,17,37,2.40
2010,04,01,17,38,3.10
2010,04,01,17,39,1.70
2010,04,01,17,40,0.20
2010,04,01,17,41,0.10
2010,04,01,17,42,0.00
2010,04,01,17,43,0.00
2010,04,01,17,44,0.70
2010,04,01,17,45,1.00
2010,04,01,17,46,1.20
2010,04,01,17,47,1.50
2010,04,01,17,48,1.40
2010,04,01,17,49,0.00
2010,04,01,17,50,0.00
2010,04,01,17,51,2.10
2010,04,01,17,52,1.00
2010,04,01,17,53,1.80
2010,04,01,17,54,0.80
2010,04,01,17,55,1.30
2010,04,01,17,56,2.00
2010,04,01,17,57,0.00
2010,04,01,17,58,3.90
2010,04,01,17,59,4.00
2010,04,01,18,00,4.20
2010,04,01,18,01,5.10